Overview Statistics Trail Chart Weather Telemetry Raw packets
 

This is the latest recevied weather packets stored in our database for station/object ED1ZAI-14. If no packets are shown the sender has not sent any weather packets the latest 10 day(s).

<< 4 5 6 7 8 9 10 >>
Time Temp. Humidity Pressure Rain* Wind** Luminosity Snow
1788347056 26.67° C 27% 817.2 hPa - - - -
1788345256 25° C 30% 817.3 hPa - - - -
1788343456 24.44° C 34% 817.3 hPa - - - -
1788341656 25° C 34% 817.1 hPa - - - -
1788339856 25.56° C 30% 816.9 hPa - - - -
1788338056 24.44° C 42% 816.7 hPa - - - -
1788336430 22.78° C 44% 816.4 hPa - - - -
1788336264 22.78° C 44% 816.4 hPa - - - -
1788334457 21.11° C 50% 816 hPa - - - -
1788332709 18.33° C 76% 815.9 hPa - - - -
1788332655 18.33° C 76% 815.9 hPa - - - -
1788330855 16.67° C 83% 815.7 hPa - - - -
1788329055 15° C 100% 815.5 hPa - - - -
1788327255 13.89° C 100% 815.3 hPa - - - -
1788325455 14.44° C 100% 815.2 hPa - - - -
1788323655 14.44° C 100% 815.1 hPa - - - -
1788321855 14.44° C 100% 815.2 hPa - - - -
1788320055 13.33° C 100% 815.4 hPa - - - -
1788318255 13.33° C 100% 815.4 hPa - - - -
1788316455 13.89° C 100% 815.3 hPa - - - -
1788314655 13.89° C 100% 815.4 hPa - - - -
1788312855 14.44° C 100% 815.3 hPa - - - -
1788311056 14.44° C 100% 815.3 hPa - - - -
1788309256 15° C 100% 815.5 hPa - - - -
1788307455 15° C 100% 815.4 hPa - - - -

* Rain since midnight (hover to see other rain measurements)
** Current wind speed in m/s (hover to see current wind gust speed)